Location: Avully
(45.9633°N, 6.0228°E)
Time: 20:39:54
(UTC+00:00)

Cosmos 2360 Rocket - Pass Details

Date: 14 August 2024
Orbit: 834 x 843 km, 71.0° (Epoch: 10 September)

Event Time Altitude Azimuth Distance (km) Brightness Sun altitude
Exits shadow 22:10:52 15° 73° (ENE) 2,112 4.2 -26.7°
Drops below altitude 10° 22:12:33 10° 57° (ENE) 2,466 4.7 -26.9°
Sets 22:15:42 0° 40° (NE) 3,405 5.7 -27.1°
